Theta_e
304 305 305 306 306 306 306 306 306 307 309 308 308 310 311 316 323 333 342 344 342 340 340 341 338 337 336 333 328 324 323 325 328 327 327 328 330 330 331 333 332 332 333
302 304 305 306 307 306 307 307 307 307 308 309 309 310 311 313 318 329 334 341 340 339 339 338 335 336 336 335 331 325 322 324 328 324 324 320 324 328 328 329 328 329 330
301 302 303 305 306 307 308 308 308 308 308 308 310 313 314 316 318 325 333 337 339 339 338 337 334 335 336 335 332 326 325 322 326 327 324 318 317 323 328 327 328 329 329
301 302 302 303 305 306 308 310 309 308 308 308 309 309 310 312 316 321 327 335 338 338 339 338 335 333 334 333 330 326 324 326 324 329 329 330 327 321 320 326 328 329 328
300 301 302 304 305 306 307 310 309 308 309 308 308 309 309 313 315 318 322 328 332 336 337 336 335 333 332 333 329 325 323 325 324 327 327 327 327 328 323 320 321 326 327
299 301 303 304 305 306 307 309 308 308 308 308 308 309 308 311 313 317 319 324 331 331 337 337 334 333 330 328 327 324 325 324 323 325 327 328 326 323 323 321 321 322 323
296 297 299 302 305 305 307 310 309 307 307 307 308 309 311 311 312 314 318 320 325 329 332 333 333 332 330 329 330 324 324 323 323 324 327 329 329 328 325 324 322 321 323
296 300 304 306 305 305 307 310 308 306 306 307 308 309 312 314 314 315 317 318 321 324 330 330 332 332 332 329 328 325 324 323 323 323 324 325 325 327 326 325 322 319 320
297 299 305 308 306 306 307 310 310 309 308 307 308 309 311 313 314 315 317 318 319 322 325 330 332 331 331 331 329 328 325 325 325 323 326 324 325 326 327 327 327 322 317
296 299 303 308 309 308 309 310 312 311 311 311 310 310 311 312 315 316 317 318 319 320 323 327 330 332 330 329 329 327 327 326 326 326 323 324 326 327 327 328 328 325 322
295 298 301 304 308 313 311 312 313 312 313 313 313 313 313 314 315 316 318 319 320 319 322 325 327 329 330 329 328 327 326 325 326 325 324 322 325 323 326 328 327 324 324
296 297 299 301 302 305 309 314 314 314 314 314 314 315 316 316 315 317 317 320 318 320 320 322 323 325 326 328 327 326 326 325 323 324 322 323 323 323 325 324 324 323 323
295 296 297 298 299 302 306 310 312 311 314 315 315 315 315 316 315 316 317 318 319 318 319 320 321 322 325 328 329 327 325 324 324 324 322 322 325 322 323 323 321 322 320
293 294 294 296 297 300 301 302 303 304 309 311 313 315 315 316 316 316 317 317 317 318 318 319 321 324 325 327 328 326 326 325 323 324 324 323 322 321 320 320 320 320 319
292 293 293 294 295 297 298 299 300 302 308 310 311 313 315 316 316 317 317 317 319 319 320 320 322 324 325 325 326 326 325 324 323 322 321 320 316 309 315 318 319 319 317
291 292 293 294 294 294 296 297 298 299 303 303 305 311 309 307 310 311 313 316 318 319 319 322 323 320 316 312 313 319 319 317 316 315 315 316 310 311 311 311 310 314 316
291 292 293 294 294 295 296 295 296 299 298 300 300 300 302 303 304 303 306 306 305 304 302 303 304 302 304 307 310 311 316 314 317 313 312 311 310 308 310 310 308 308 308
292 292 293 295 296 297 298 299 298 296 296 296 295 297 298 300 300 300 301 301 301 301 301 300 301 300 301 303 303 303 303 301 300 300 301 302 302 303 304 305 302 299 299
293 293 294 295 295 296 297 297 297 297 296 295 295 296 296 296 297 296 296 298 298 297 297 298 298 298 298 300 301 302 300 299 298 298 299 300 300 302 302 300 298 297 296
293 293 294 294 294 294 296 296 295 294 294 294 295 297 298 298 296 297 296 296 296 296 297 297 300 300 299 300 300 301 301 299 298 298 298 299 300 301 301 298 297 296 296
293 294 294 293 293 294 295 293 293 292 294 294 294 295 296 296 298 298 298 298 297 297 296 296 297 298 299 299 300 300 299 298 297 297 296 297 298 298 299 300 296 295 296
293 293 294 293 293 293 294 293 291 293 294 294 293 294 295 295 296 296 296 297 297 296 295 295 295 295 297 297 298 298 298 299 298 296 297 298 297 297 297 298 299 299 296
294 293 293 292 292 292 293 292 291 292 292 292 292 292 292 293 294 294 294 294 295 294 293 292 292 292 294 294 296 296 297 297 297 297 296 296 296 296 296 296 297 298 292
293 294 292 292 292 291 291 291 291 291 290 289 289 291 291 291 292 292 292 292 292 291 291 290 290 290 291 292 293 293 294 295 295 296 296 295 294 294 293 292 292 291 289
294 293 293 293 292 292 291 291 291 291 290 289 288 288 288 288 289 290 290 291 291 291 290 290 290 290 289 290 292 291 291 291 293 295 294 292 290 289 289 289 289 289 288
294 293 293 293 293 292 291 290 290 290 290 288 288 287 287 287 287 287 288 289 289 290 290 289 290 290 290 290 289 289 289 290 291 290 287 286 285 285 285 286 286 287 288
Wind_Speed
15 14 12 13 14 14 15 16 16 17 13 11 11 11 12 11 11 10 15 18 15 15 16 12 12 12 13 14 15 13 13 11 10 8 7 6 8 9 8 8 8 9 9
17 16 15 13 13 15 15 16 17 17 15 11 11 11 11 11 11 10 13 13 14 14 15 14 12 14 13 16 15 15 11 10 11 9 8 7 8 9 9 8 8 10 7
20 19 18 17 14 15 16 17 18 17 17 17 11 10 10 9 10 11 10 12 15 16 16 16 12 13 12 11 15 14 16 11 12 15 7 6 7 7 8 12 9 10 7
22 21 21 19 17 15 15 16 17 18 16 17 14 18 13 13 12 12 12 12 14 16 17 16 15 14 11 13 13 12 12 12 12 10 10 6 3 6 5 6 10 9 10
23 23 21 20 18 16 14 14 15 17 17 16 18 15 17 12 11 12 15 17 12 15 15 17 17 14 12 13 13 11 12 12 10 11 10 12 7 6 4 4 5 7 8
23 23 22 20 16 13 13 13 14 16 16 17 18 19 19 16 12 14 12 12 12 9 17 16 13 14 13 13 13 13 15 13 11 9 10 10 11 9 5 4 4 7 7
19 19 21 18 15 13 13 12 12 15 16 17 17 18 17 18 18 16 12 14 11 10 13 13 14 12 14 14 15 13 14 14 13 15 11 10 11 9 6 8 6 5 4
19 19 19 14 14 13 13 12 12 14 14 15 16 15 17 11 12 15 12 12 12 12 15 12 13 15 15 13 14 11 11 13 13 16 14 10 10 8 9 9 7 6 6
19 18 18 11 9 10 12 11 11 12 12 14 13 15 15 16 14 17 15 12 14 12 16 17 15 13 13 16 15 12 14 14 15 15 16 12 10 8 10 11 10 10 11
18 17 15 17 8 8 9 10 10 10 11 14 15 14 16 17 16 14 17 17 15 17 17 18 18 16 13 14 14 12 13 15 12 12 16 15 12 12 10 11 10 10 11
17 16 16 15 16 9 7 8 8 9 12 13 14 14 13 15 15 15 16 17 17 17 17 18 17 18 15 13 12 14 13 16 15 14 16 18 18 11 10 10 9 10 10
12 12 13 13 13 14 13 7 5 7 11 12 12 12 12 13 15 17 18 17 17 16 16 18 18 17 17 15 15 15 13 13 15 16 16 18 13 16 15 10 13 12 12
13 12 13 14 13 12 12 7 8 7 5 7 9 12 12 13 15 16 17 17 17 16 16 16 16 17 17 16 16 15 14 14 15 16 16 15 17 14 11 12 10 10 9
19 19 18 16 15 15 15 13 12 11 8 6 6 8 11 12 12 13 15 14 15 14 14 15 16 16 16 15 14 14 13 13 11 13 16 15 16 15 11 10 9 11 11
21 19 18 17 17 17 15 14 14 17 4 6 4 5 5 4 4 6 10 12 13 13 14 15 15 15 14 11 14 14 14 14 13 13 9 5 4 3 7 6 11 10 8
17 18 18 18 17 18 17 15 16 16 13 11 11 4 5 7 6 5 5 7 11 4 3 13 10 5 3 7 8 12 5 5 5 4 2 1 6 8 6 11 10 5 11
16 16 16 15 14 15 14 16 15 15 15 15 14 11 7 8 10 12 7 7 8 12 10 10 12 10 10 11 6 8 5 4 4 3 3 0 3 4 3 5 4 7 7
14 14 13 14 15 14 16 15 16 16 17 21 17 14 12 14 15 15 6 11 11 14 10 14 14 13 12 17 17 16 10 9 11 10 8 7 7 7 7 5 1 1 1
8 9 10 11 12 15 14 14 15 15 15 14 12 12 11 13 13 12 14 13 14 13 12 11 13 15 13 18 16 12 9 11 10 7 8 6 6 12 11 5 3 3 2
6 8 9 10 12 14 13 14 15 16 16 15 15 15 16 16 17 16 14 11 12 13 10 13 14 17 13 18 16 11 7 9 6 6 6 11 8 8 7 3 3 4 3
5 6 7 8 10 10 10 12 13 14 12 11 13 15 15 15 15 14 12 10 11 11 11 13 12 14 13 15 17 13 8 6 5 4 4 4 10 8 7 5 1 2 3
3 5 6 7 8 9 8 11 12 9 9 10 11 12 13 11 10 13 11 12 12 12 12 11 10 9 11 18 17 17 15 10 7 7 5 6 11 10 9 8 10 6 1
3 2 3 4 5 7 8 8 9 10 10 10 11 11 11 11 11 11 11 9 11 10 10 9 8 8 7 8 16 16 15 13 6 5 5 5 7 9 7 11 12 10 2
6 4 4 1 2 4 5 5 5 6 7 8 9 8 9 9 9 8 8 8 8 8 7 7 6 6 7 8 7 7 8 10 8 7 6 6 8 9 8 7 7 4 3
7 7 6 4 3 1 2 4 4 4 4 5 5 6 6 7 8 8 7 7 9 7 5 5 5 5 6 7 10 10 7 7 9 7 5 6 6 7 6 6 5 5 4
9 8 8 7 5 4 1 1 3 3 1 3 3 4 3 4 4 5 6 12 11 11 12 11 7 4 7 8 9 10 9 11 12 5 5 4 6 7 6 5 6 6 7
Wind_Direction
308 293 283 274 265 257 254 247 245 241 235 232 231 231 229 229 230 228 226 216 210 197 198 200 196 197 204 202 197 199 202 202 208 206 212 224 228 223 224 222 227 224 233
307 299 291 275 261 260 255 249 245 239 233 234 233 233 230 229 231 223 226 217 198 202 201 195 194 197 207 205 200 198 198 205 198 200 207 217 210 228 224 222 224 228 224
305 300 294 286 270 261 256 253 247 239 232 229 229 228 230 230 223 225 219 218 210 200 205 195 190 196 207 208 200 197 199 199 197 215 197 209 233 212 202 220 218 220 218
307 300 295 287 278 269 262 258 248 241 234 226 223 222 223 220 221 222 224 220 213 207 200 199 190 193 194 202 199 197 198 200 201 206 222 246 257 211 194 218 221 221 221
307 301 293 286 280 274 261 255 242 240 235 223 220 219 223 227 224 222 220 219 220 221 204 201 197 194 198 202 197 193 206 203 206 200 204 218 226 245 265 207 211 229 231
309 304 296 286 275 266 256 242 232 237 231 225 220 223 224 224 223 223 223 220 213 212 221 206 207 198 195 190 195 191 201 208 205 212 216 209 209 215 209 232 212 225 207
306 299 293 286 272 252 242 229 227 229 222 218 219 222 224 226 227 227 227 224 218 216 214 208 205 199 191 192 197 194 195 206 205 210 212 211 216 218 213 236 231 239 200
315 312 306 285 269 257 248 236 217 215 215 215 218 219 218 219 225 229 229 235 231 220 212 212 213 204 197 194 191 192 202 205 210 212 211 212 215 212 218 215 220 235 227
322 320 323 324 286 263 253 246 231 224 214 217 217 220 215 217 219 223 228 233 236 234 220 212 210 210 213 201 193 199 202 204 209 210 218 218 218 216 228 229 225 226 249
325 329 333 339 318 279 259 243 238 228 224 219 216 214 215 217 218 220 222 226 228 237 233 217 213 207 208 211 201 203 205 211 212 209 212 219 221 222 225 229 230 228 237
333 341 343 341 340 321 274 255 244 227 225 222 219 217 213 218 223 220 220 220 224 217 231 229 214 215 208 204 207 207 208 215 212 213 218 219 225 228 231 230 228 232 228
347 348 349 350 352 342 309 266 256 230 228 229 224 218 213 217 222 223 221 220 222 218 216 232 232 229 221 216 215 213 209 219 221 216 220 222 217 225 224 223 228 226 227
6 9 14 12 360 352 353 297 305 284 257 228 219 220 214 213 220 222 224 221 219 211 210 226 234 235 230 223 217 217 216 218 221 221 218 222 224 221 215 221 229 226 241
16 16 14 11 10 11 14 9 351 307 252 210 211 213 215 214 224 226 223 213 219 227 220 224 228 232 235 232 226 216 216 215 221 227 224 216 217 223 223 231 234 253 247
13 7 8 9 11 15 14 8 360 0 197 152 180 221 215 185 201 231 239 230 226 228 229 236 235 232 229 226 224 217 217 222 222 221 223 214 185 290 267 250 241 229 224
5 3 7 13 12 5 2 11 16 21 33 52 34 80 76 68 66 24 320 280 240 225 289 240 232 199 167 181 214 214 196 141 159 152 136 174 197 214 247 246 234 226 227
6 8 7 5 8 10 9 7 13 34 40 49 44 27 33 83 65 50 53 61 80 75 45 77 77 55 55 41 91 105 109 149 135 147 183 252 28 33 243 249 259 259 263
11 12 8 11 18 16 25 29 26 32 38 39 26 17 28 59 61 58 49 93 86 72 63 61 63 63 49 54 65 67 68 67 64 53 41 32 20 5 345 331 36 138 255
10 10 11 14 18 20 20 26 39 43 47 48 44 42 51 73 88 91 53 56 73 70 64 62 65 62 52 45 51 69 65 62 61 57 46 46 37 23 15 350 317 296 328
23 14 14 18 22 16 16 28 34 32 34 31 35 42 44 51 59 62 63 60 64 71 68 67 64 64 63 50 48 53 60 67 65 62 55 42 40 33 38 52 10 312 314
10 13 29 29 20 7 17 36 32 29 28 34 33 41 46 50 53 59 60 67 71 75 71 71 67 65 57 53 52 48 60 65 73 67 44 32 19 12 3 354 177 241 306
338 13 19 24 14 7 16 35 33 20 32 40 47 43 43 41 43 54 57 58 63 66 64 65 62 53 51 43 45 48 48 36 54 43 26 20 8 6 2 352 336 302 228
211 267 6 24 18 8 13 31 14 15 23 35 38 41 46 45 50 52 52 53 54 56 56 52 53 44 40 37 29 33 36 35 36 26 28 34 28 16 13 2 1 339 183
218 226 237 242 36 12 22 30 16 19 30 41 40 37 49 52 56 54 53 57 53 56 55 51 44 39 28 22 18 14 8 7 8 356 9 12 27 27 15 15 7 354 338
209 214 224 231 209 200 33 26 12 12 55 61 56 53 49 57 63 61 50 59 51 45 64 61 50 33 36 24 16 12 1 355 343 341 8 359 4 2 1 358 357 352 339
201 207 214 216 205 200 166 9 357 352 40 73 58 51 66 70 78 100 96 69 73 72 74 63 52 74 45 27 22 18 19 10 4 41 25 9 353 353 348 348 346 343 344